Regional Weather Roundup
Issued by NWS

Home | Current Version | Previous Version | Graphics & Text | Print | Product List | Glossary Off
Versions: 1 2 3 4 5 6 7 8 9 10 11 12 13 14 15 16 17 18 19 20 21 22 23 24 25 26 27 28 29 30 31 32 33 34 35 36 37 38 39 40 41 42 43 44 45 46 47 48 49 50

000
ASUS43 KTOP 040508
RWRKS

WEATHER ROUNDUP FOR KANSAS
NATIONAL WEATHER SERVICE GOODLAND KS
1200 AM CDT SAT JUL 04 2015

NOTE:  "FAIR" INDICATES FEW OR NO CLOUDS BELOW 12,000 FEET WITH NO
SIGNIFICANT WEATHER AND/OR OBSTRUCTIONS TO VISIBILITY.

KSZ001>006-013>018-027>032-041>047-040600-
NORTHWEST KANSAS

CITY           SKY/WX    TMP DP  RH WIND       PRES   REMARKS
GOODLAND       PTCLDY    70  57  63 SE9       30.08R
HAYS           CLEAR     66  57  72 SE7       30.02F
HILL CITY      CLEAR     67  59  75 E5        30.03R
RUSSELL        CLEAR     67  62  84 SE8       30.01R
$$

KSZ061>065-074>080-084>089-040600-
SOUTHWEST KANSAS

CITY           SKY/WX    TMP DP  RH WIND       PRES   REMARKS
DODGE CITY     PTCLDY    67  58  72 SE6       30.04R
ELKHART          N/A     67  57  70 S8          N/A
GARDEN CITY    PTCLDY    69  63  81 SE6       30.05R
GREAT BEND     CLEAR     70  63  78 E6        30.03R
LIBERAL        MOCLDY    72  63  73 SW6         N/A
PRATT          CLEAR     70  59  68 E5        30.03R
$$

KSZ066>073-081>083-090>101-040600-
SOUTHEAST KANSAS

CITY           SKY/WX    TMP DP  RH WIND       PRES   REMARKS
CHANUTE        PTCLDY    71  66  84 NE6       29.99R
COFFEYVILLE    CLOUDY    74  69  85 NE5       29.96R
HUTCHINSON     CLEAR     68  62  81 E3        30.01R
MEDICINE LODGE   N/A     74  62  66 E6        29.99R
NEWTON         CLEAR     68  59  73 CALM      30.03R
PARSONS        CLOUDY    71  69  93 CALM      29.98R
WICHITA INTL   CLEAR     72  63  73 E6        30.00R
WICHITA JABRA  CLEAR     69  63  81 CALM      30.00R
WICHITA MCCONL CLEAR     72  64  75 NE5       30.00R
WINFIELD       CLEAR     73  64  73 NE5       29.99S
$$

KSZ007>012-019>026-033>040-048>060-102>105-040600-
NORTHEAST KANSAS

CITY           SKY/WX    TMP DP  RH WIND       PRES   REMARKS
CONCORDIA      CLEAR     66  62  87 SE3       30.02R
EMPORIA        CLEAR     68  61  78 NE5       30.00R
LAWRENCE       CLEAR     63  60  90 CALM      30.00R
MANHATTAN      CLEAR     64  61  90 CALM      30.00R
MARYSVILLE     CLEAR     64  59  82 E5        30.00S
OLATHE IND     CLEAR     67  59  75 NE3       30.00R
OLATHE EXE     CLEAR     65  59  81 NE6       29.99R
SALINA         CLEAR     72  62  71 SE7       30.01R
TOPEKA BILLARD PTCLDY    66  62  87 CALM      30.00R FOG
TOPEKA FORBES    N/A     66  60  81 CALM      30.00R
$$



USA.gov is the U.S. government's official web portal to all federal, state and local government web resources and services.